ELY384 LIRF-LLBG

Flight info

Callsign ELY384
Flight time 2h 37m
Altitude 35000
Route ROTUN DCT ENSOT DCT PEVIR DCT AGNIS DCT CRN DCT RUTOM DCT TRL DCT VANZA DCT PIKOG L609 ZUKKO
Aircraft B738/M-SDE2E3FGHIRWXY/LB1

Departure

Time 2026-05-07 18:08
Airport Rome–Fiumicino Leonardo da Vinci International Airport (LIRF)

Arrival

Time 2026-05-07 20:46
Airport Ben Gurion International Airport (LLBG)
Time Latitude Longitude Altitude Speed Heading
2026-05-07 17:45 41.79698 12.24616 14 ft 0 kts 69°
2026-05-07 17:56 41.79695 12.24603 13 ft 4 kts 70°
2026-05-07 17:57 41.79685 12.24569 14 ft 4 kts 69°
2026-05-07 17:57 41.79678 12.24548 16 ft 4 kts 56°
2026-05-07 17:57 41.79653 12.24521 13 ft 4 kts 358°
2026-05-07 17:57 41.79643 12.24523 13 ft 0 kts 339°
2026-05-07 18:01 41.79643 12.24522 13 ft 1 kts 339°
2026-05-07 18:01 41.79667 12.24510 13 ft 7 kts 339°
2026-05-07 18:01 41.79729 12.24479 12 ft 11 kts 339°
2026-05-07 18:01 41.79839 12.24424 12 ft 14 kts 340°
2026-05-07 18:02 41.79984 12.24431 8 ft 12 kts 65°
2026-05-07 18:02 41.80017 12.24547 10 ft 14 kts 70°
2026-05-07 18:02 41.80053 12.24677 11 ft 16 kts 69°
2026-05-07 18:03 41.80128 12.24777 12 ft 17 kts
2026-05-07 18:03 41.80204 12.24878 17 ft 17 kts 79°
2026-05-07 18:03 41.80206 12.25039 16 ft 18 kts 85°
2026-05-07 18:03 41.80245 12.25215 18 ft 21 kts 69°
2026-05-07 18:04 41.80299 12.25408 15 ft 24 kts 70°
2026-05-07 18:04 41.80359 12.25628 14 ft 26 kts 69°
2026-05-07 18:04 41.80426 12.25869 11 ft 29 kts 71°
2026-05-07 18:04 41.80497 12.26125 12 ft 29 kts 69°
2026-05-07 18:05 41.80565 12.26375 14 ft 28 kts 70°
2026-05-07 18:05 41.80630 12.26610 12 ft 26 kts 69°
2026-05-07 18:05 41.80692 12.26830 10 ft 25 kts 69°
2026-05-07 18:05 41.80751 12.27024 10 ft 14 kts 51°
2026-05-07 18:06 41.80800 12.27042 7 ft 6 kts 348°
2026-05-07 18:06 41.80840 12.27025 7 ft 6 kts 339°
2026-05-07 18:06 41.80882 12.27003 8 ft 7 kts 339°
2026-05-07 18:06 41.80939 12.26975 10 ft 10 kts 340°
2026-05-07 18:07 41.80958 12.26919 9 ft 7 kts 243°
2026-05-07 18:07 41.80939 12.26862 9 ft 7 kts 251°
2026-05-07 18:07 41.80923 12.26803 8 ft 7 kts 250°
2026-05-07 18:07 41.80884 12.26659 8 ft 41 kts 250°
2026-05-07 18:08 41.80704 12.26008 17 ft 108 kts 249°
2026-05-07 18:08 41.80376 12.24817 52 ft 159 kts 253°
2026-05-07 18:08 41.79988 12.23349 579 ft 174 kts 253°
2026-05-07 18:08 41.79552 12.21821 1338 ft 176 kts 251°
2026-05-07 18:09 41.79085 12.20258 1984 ft 188 kts 250°
2026-05-07 18:09 41.78570 12.18485 2370 ft 219 kts 251°
2026-05-07 18:09 41.78005 12.16469 2618 ft 240 kts 251°
2026-05-07 18:09 41.77429 12.14331 2998 ft 260 kts 251°
2026-05-07 18:10 41.76799 12.11964 3481 ft 275 kts 250°
2026-05-07 18:10 41.75811 12.09786 4350 ft 273 kts 219°
2026-05-07 18:10 41.74129 12.08706 5251 ft 269 kts 185°
2026-05-07 18:10 41.72317 12.09063 6113 ft 265 kts 153°
2026-05-07 18:11 41.70710 12.10274 6915 ft 266 kts 150°
2026-05-07 18:11 41.69053 12.11446 7627 ft 271 kts 155°
2026-05-07 18:11 41.67332 12.12450 8383 ft 274 kts 159°
2026-05-07 18:11 41.65530 12.13310 9173 ft 276 kts 163°
2026-05-07 18:12 41.63672 12.14047 9920 ft 280 kts 166°
2026-05-07 18:12 41.61754 12.14697 10375 ft 294 kts 168°
2026-05-07 18:12 41.59673 12.15314 10516 ft 318 kts 169°
2026-05-07 18:12 41.57435 12.15911 10691 ft 339 kts 170°
2026-05-07 18:13 41.55058 12.16496 11047 ft 353 kts 171°
2026-05-07 18:13 41.52639 12.17059 11810 ft 353 kts 172°
2026-05-07 18:13 41.50196 12.17605 12392 ft 360 kts 172°
2026-05-07 18:13 41.47702 12.18147 13028 ft 364 kts 172°
2026-05-07 18:14 41.45186 12.18686 13710 ft 368 kts 172°
2026-05-07 18:14 41.42649 12.19225 14333 ft 371 kts 172°
2026-05-07 18:14 41.40093 12.19765 14960 ft 374 kts 173°
2026-05-07 18:14 41.37509 12.20310 15579 ft 376 kts 173°
2026-05-07 18:15 41.34944 12.20850 16178 ft 379 kts 173°
2026-05-07 18:15 41.32296 12.21406 16786 ft 382 kts 173°
2026-05-07 18:15 41.29697 12.21952 17366 ft 385 kts 173°
2026-05-07 18:15 41.27035 12.22511 17956 ft 388 kts 173°
2026-05-07 18:16 41.24359 12.23073 18489 ft 391 kts 174°
2026-05-07 18:16 41.21660 12.23639 18949 ft 395 kts 174°
2026-05-07 18:16 41.18923 12.24212 19380 ft 400 kts 174°
2026-05-07 18:16 41.16165 12.24789 19825 ft 404 kts 174°
2026-05-07 18:17 41.13377 12.25372 20273 ft 407 kts 174°
2026-05-07 18:17 41.10558 12.25962 20728 ft 410 kts 174°
2026-05-07 18:17 41.07732 12.26552 21230 ft 412 kts 174°
2026-05-07 18:17 41.04875 12.27149 21644 ft 416 kts 174°
2026-05-07 18:18 41.02002 12.27748 22044 ft 420 kts 174°
2026-05-07 18:18 40.99141 12.28345 22452 ft 424 kts 174°
2026-05-07 18:18 40.96211 12.28955 22860 ft 427 kts 174°
2026-05-07 18:18 40.93267 12.29566 23258 ft 430 kts 174°
2026-05-07 18:19 40.90339 12.30490 23585 ft 439 kts 161°
2026-05-07 18:19 40.87712 12.32559 24196 ft 441 kts 144°
2026-05-07 18:19 40.85594 12.35515 24627 ft 449 kts 128°
2026-05-07 18:19 40.83849 12.38966 24879 ft 454 kts 126°
2026-05-07 18:20 40.82110 12.42497 25103 ft 459 kts 126°
2026-05-07 18:20 40.80362 12.46043 25398 ft 462 kts 126°
2026-05-07 18:20 40.78592 12.49595 25725 ft 464 kts 127°
2026-05-07 18:20 40.76816 12.53118 26034 ft 466 kts 127°
2026-05-07 18:21 40.75006 12.56674 26324 ft 469 kts 127°
2026-05-07 18:21 40.73174 12.60254 26623 ft 471 kts 127°
2026-05-07 18:21 40.71325 12.63857 26882 ft 474 kts 127°
2026-05-07 18:21 40.69470 12.67466 27159 ft 476 kts 128°
2026-05-07 18:22 40.67598 12.71106 27436 ft 479 kts 128°
2026-05-07 18:22 40.66359 12.73514 27613 ft 480 kts 128°
2026-05-07 18:22 40.63864 12.78358 27929 ft 484 kts 128°
2026-05-07 18:22 40.61961 12.82050 28065 ft 489 kts 128°
2026-05-07 18:23 40.60038 12.85775 28252 ft 492 kts 128°
2026-05-07 18:23 40.58105 12.89518 28535 ft 494 kts 128°
2026-05-07 18:23 40.56171 12.93258 28812 ft 495 kts 128°
2026-05-07 18:23 40.54274 12.96991 29098 ft 498 kts 125°
2026-05-07 18:24 40.52664 13.01051 29425 ft 503 kts 116°
2026-05-07 18:24 40.51510 13.05407 29801 ft 505 kts 110°
2026-05-07 18:24 40.50466 13.09820 30118 ft 505 kts 110°
2026-05-07 18:24 40.49444 13.14195 30331 ft 506 kts 111°
2026-05-07 18:25 40.48399 13.18620 30537 ft 508 kts 111°
2026-05-07 18:25 40.47330 13.23063 30774 ft 509 kts 111°
2026-05-07 18:25 40.46245 13.27505 31039 ft 509 kts 112°
2026-05-07 18:25 40.45155 13.31922 31290 ft 509 kts 112°
2026-05-07 18:26 40.44054 13.36357 31505 ft 510 kts 112°
2026-05-07 18:26 40.42963 13.40734 31736 ft 511 kts 112°
2026-05-07 18:26 40.41858 13.45168 31987 ft 511 kts 112°
2026-05-07 18:26 40.40750 13.49607 32196 ft 512 kts 113°
2026-05-07 18:27 40.39633 13.54073 32269 ft 517 kts 114°
2026-05-07 18:27 40.37372 13.63096 32597 ft 521 kts 114°
2026-05-07 18:27 40.36241 13.67603 32876 ft 521 kts 114°
2026-05-07 18:28 40.35106 13.72122 33102 ft 521 kts 114°
2026-05-07 18:28 40.33965 13.76650 33277 ft 523 kts 114°
2026-05-07 18:28 40.32817 13.81196 33471 ft 524 kts 114°
2026-05-07 18:28 40.31668 13.85738 33674 ft 524 kts 115°
2026-05-07 18:29 40.30518 13.90279 33812 ft 527 kts 116°
2026-05-07 18:29 40.27898 13.99157 34039 ft 519 kts 127°
2026-05-07 18:29 40.26039 14.03141 34324 ft 503 kts 137°
2026-05-07 18:30 40.23868 14.06677 34604 ft 494 kts 141°
2026-05-07 18:30 40.21663 14.10131 34794 ft 494 kts 141°
2026-05-07 18:30 40.19450 14.13593 34891 ft 496 kts 141°
2026-05-07 18:31 40.15046 14.20557 34900 ft 499 kts 140°
2026-05-07 18:31 40.10662 14.27588 34903 ft 496 kts 140°
2026-05-07 18:32 40.06304 14.34580 34899 ft 495 kts 140°
2026-05-07 18:32 40.01972 14.41502 34903 ft 494 kts 140°
2026-05-07 18:33 39.97605 14.48459 34896 ft 494 kts 140°
2026-05-07 18:33 39.93270 14.55350 34907 ft 495 kts 140°
2026-05-07 18:34 39.88886 14.62305 34907 ft 496 kts 140°
2026-05-07 18:34 39.84495 14.69259 34909 ft 498 kts 140°
2026-05-07 18:35 39.80289 14.76536 34898 ft 514 kts 129°
2026-05-07 18:35 39.77253 14.85114 34907 ft 525 kts 121°
2026-05-07 18:36 39.74440 14.93831 34877 ft 525 kts 121°
2026-05-07 18:36 39.71572 15.02554 34901 ft 523 kts 121°
2026-05-07 18:37 39.68661 15.11205 34903 ft 522 kts 122°
2026-05-07 18:37 39.65728 15.19836 34905 ft 521 kts 122°
2026-05-07 18:38 39.62819 15.28375 34921 ft 520 kts 122°
2026-05-07 18:38 39.59895 15.36941 34927 ft 519 kts 121°
2026-05-07 18:39 39.56970 15.45493 34942 ft 518 kts 122°
2026-05-07 18:39 39.54037 15.54040 34947 ft 519 kts 122°
2026-05-07 18:40 39.51096 15.62586 34944 ft 519 kts 122°
2026-05-07 18:40 39.48162 15.71085 34962 ft 519 kts 121°
2026-05-07 18:41 39.45207 15.79620 34988 ft 520 kts 121°
2026-05-07 18:41 39.42237 15.88173 34983 ft 521 kts 121°
2026-05-07 18:42 39.39253 15.96744 35004 ft 522 kts 121°
2026-05-07 18:42 39.36259 16.05314 35013 ft 523 kts 121°
2026-05-07 18:43 39.33253 16.13897 35011 ft 525 kts 121°
2026-05-07 18:43 39.30254 16.22440 35041 ft 526 kts 121°
2026-05-07 18:44 39.27222 16.31042 35052 ft 525 kts 121°
2026-05-07 18:44 39.24185 16.39632 35060 ft 525 kts 120°
2026-05-07 18:45 39.21141 16.48221 35067 ft 525 kts 120°
2026-05-07 18:45 39.18120 16.56723 35080 ft 524 kts 121°
2026-05-07 18:46 39.15080 16.65250 35068 ft 523 kts 121°
2026-05-07 18:46 39.12533 16.72376 35068 ft 521 kts 121°
2026-05-07 18:47 39.09519 16.80786 35063 ft 519 kts 121°
2026-05-07 18:47 39.06487 16.89220 35038 ft 518 kts 121°
2026-05-07 18:48 39.03456 16.97631 35027 ft 518 kts 121°
2026-05-07 18:48 39.00411 17.06059 35001 ft 519 kts 121°
2026-05-07 18:49 38.97833 17.14781 35024 ft 525 kts 111°
2026-05-07 18:49 38.95746 17.23793 35011 ft 526 kts 110°
2026-05-07 18:50 38.93683 17.32760 35024 ft 527 kts 111°
2026-05-07 18:50 38.91532 17.41770 35003 ft 528 kts 111°
2026-05-07 18:51 38.89333 17.50796 35015 ft 529 kts 111°
2026-05-07 18:51 38.87123 17.59809 35017 ft 530 kts 111°
2026-05-07 18:52 38.84917 17.68791 35007 ft 531 kts 111°
2026-05-07 18:52 38.82692 17.77830 34989 ft 531 kts 111°
2026-05-07 18:53 38.80460 17.86869 34999 ft 531 kts 111°
2026-05-07 18:53 38.78220 17.95900 35002 ft 531 kts 111°
2026-05-07 18:54 38.75973 18.04928 35002 ft 531 kts 111°
2026-05-07 18:54 38.73733 18.13894 35008 ft 530 kts 111°
2026-05-07 18:55 38.71478 18.22887 35010 ft 529 kts 111°
2026-05-07 18:55 38.69221 18.31851 35015 ft 529 kts 111°
2026-05-07 18:56 38.66960 18.40803 35013 ft 528 kts 111°
2026-05-07 18:56 38.64692 18.49748 35010 ft 528 kts 111°
2026-05-07 18:57 38.62436 18.58614 35021 ft 527 kts 111°
2026-05-07 18:57 38.60158 18.67533 35020 ft 527 kts 111°
2026-05-07 18:58 38.57874 18.76447 35018 ft 528 kts 111°
2026-05-07 18:58 38.55582 18.85358 35022 ft 528 kts 110°
2026-05-07 18:59 38.53281 18.94278 35029 ft 528 kts 110°
2026-05-07 18:59 38.50903 19.03168 35032 ft 528 kts 113°
2026-05-07 19:00 38.48183 19.11870 35034 ft 528 kts 116°
2026-05-07 19:00 38.45376 19.20467 35034 ft 528 kts 115°
2026-05-07 19:01 38.42576 19.29150 35050 ft 529 kts 115°
2026-05-07 19:01 38.39804 19.37840 35045 ft 530 kts 115°
2026-05-07 19:02 38.37027 19.46557 35030 ft 530 kts 114°
2026-05-07 19:02 38.34245 19.55260 35047 ft 530 kts 114°
2026-05-07 19:03 38.31473 19.63892 35055 ft 529 kts 114°
2026-05-07 19:03 38.28674 19.72579 35056 ft 529 kts 114°
2026-05-07 19:04 38.25872 19.81249 35056 ft 529 kts 114°
2026-05-07 19:04 38.23066 19.89902 35061 ft 529 kts 114°
2026-05-07 19:05 38.20256 19.98546 35067 ft 528 kts 114°
2026-05-07 19:05 38.17442 20.07175 35073 ft 528 kts 114°
2026-05-07 19:06 38.14621 20.15799 35070 ft 528 kts 114°
2026-05-07 19:06 38.10376 20.28727 35078 ft 528 kts 114°
2026-05-07 19:07 38.07560 20.37274 35077 ft 529 kts 114°
2026-05-07 19:07 38.04716 20.45877 35077 ft 529 kts 114°
2026-05-07 19:08 38.01863 20.54483 35077 ft 528 kts 114°
2026-05-07 19:08 37.99006 20.63076 35086 ft 528 kts 114°
2026-05-07 19:09 37.96143 20.71659 35093 ft 528 kts 114°
2026-05-07 19:09 37.93275 20.80234 35097 ft 528 kts 114°
2026-05-07 19:10 37.90402 20.88797 35102 ft 528 kts 114°
2026-05-07 19:10 37.87543 20.97293 35096 ft 527 kts 114°
2026-05-07 19:11 37.84664 21.05828 35098 ft 526 kts 114°
2026-05-07 19:11 37.81779 21.14350 35124 ft 526 kts 114°
2026-05-07 19:12 37.78895 21.22850 35125 ft 526 kts 114°
2026-05-07 19:12 37.76004 21.31342 35118 ft 526 kts 114°
2026-05-07 19:13 37.73104 21.39836 35114 ft 526 kts 114°
2026-05-07 19:13 37.70201 21.48315 35112 ft 526 kts 114°
2026-05-07 19:14 37.67314 21.56724 35110 ft 525 kts 114°
2026-05-07 19:14 37.64397 21.65197 35116 ft 525 kts 114°
2026-05-07 19:15 37.61478 21.73650 35109 ft 525 kts 114°
2026-05-07 19:15 37.58551 21.82102 35122 ft 525 kts 114°
2026-05-07 19:16 37.55619 21.90546 35123 ft 526 kts 114°
2026-05-07 19:16 37.52695 21.98941 35133 ft 526 kts 114°
2026-05-07 19:17 37.49749 22.07380 35144 ft 525 kts 114°
2026-05-07 19:17 37.46792 22.15821 35140 ft 526 kts 114°
2026-05-07 19:18 37.43826 22.24270 35145 ft 527 kts 114°
2026-05-07 19:18 37.40855 22.32710 35149 ft 528 kts 114°
2026-05-07 19:19 37.38067 22.41265 35135 ft 528 kts 110°
2026-05-07 19:19 37.35487 22.49918 35140 ft 529 kts 109°
2026-05-07 19:20 37.32908 22.58584 35158 ft 529 kts 110°
2026-05-07 19:20 37.30301 22.67184 35132 ft 530 kts 110°
2026-05-07 19:21 37.27650 22.75830 35129 ft 530 kts 110°
2026-05-07 19:21 37.24986 22.84476 35133 ft 530 kts 110°
2026-05-07 19:22 37.22340 22.93044 35134 ft 530 kts 110°
2026-05-07 19:22 37.19673 23.01659 35126 ft 529 kts 110°
2026-05-07 19:23 37.16998 23.10278 35126 ft 529 kts 110°
2026-05-07 19:23 37.14320 23.18880 35126 ft 529 kts 110°
2026-05-07 19:24 37.11654 23.27417 35123 ft 529 kts 110°
2026-05-07 19:24 37.08961 23.36012 35124 ft 529 kts 110°
2026-05-07 19:25 37.06265 23.44595 35128 ft 529 kts 110°
2026-05-07 19:25 37.03562 23.53172 35125 ft 530 kts 110°
2026-05-07 19:26 37.00850 23.61750 35127 ft 530 kts 110°
2026-05-07 19:26 36.98132 23.70325 35129 ft 530 kts 110°
2026-05-07 19:27 36.95402 23.78908 35141 ft 531 kts 110°
2026-05-07 19:27 36.92680 23.87444 35137 ft 532 kts 110°
2026-05-07 19:28 36.89934 23.96032 35137 ft 532 kts 110°
2026-05-07 19:28 36.87174 24.04635 35137 ft 533 kts 110°
2026-05-07 19:29 36.84407 24.13232 35138 ft 534 kts 110°
2026-05-07 19:29 36.81647 24.21785 35141 ft 534 kts 110°
2026-05-07 19:30 36.78858 24.30400 35141 ft 535 kts 110°
2026-05-07 19:30 36.76066 24.39003 35151 ft 535 kts 109°
2026-05-07 19:31 36.73266 24.47604 35131 ft 536 kts 110°
2026-05-07 19:31 36.70455 24.56210 35145 ft 535 kts 110°
2026-05-07 19:32 36.68116 24.63352 35141 ft 535 kts 110°
2026-05-07 19:32 36.64841 24.73327 35149 ft 535 kts 110°
2026-05-07 19:33 36.62477 24.80506 35146 ft 535 kts 110°
2026-05-07 19:33 36.59663 24.89027 35147 ft 534 kts 110°
2026-05-07 19:34 36.56833 24.97573 35148 ft 534 kts 110°
2026-05-07 19:34 36.53998 25.06105 35151 ft 533 kts 109°
2026-05-07 19:35 36.51158 25.14634 35144 ft 533 kts 109°
2026-05-07 19:35 36.48335 25.23085 35147 ft 532 kts 110°
2026-05-07 19:36 36.45482 25.31602 35154 ft 532 kts 110°
2026-05-07 19:36 36.42630 25.40092 35153 ft 533 kts 109°
2026-05-07 19:37 36.39786 25.48533 35152 ft 532 kts 109°
2026-05-07 19:37 36.36924 25.57005 35160 ft 532 kts 109°
2026-05-07 19:38 36.34053 25.65479 35166 ft 531 kts 109°
2026-05-07 19:38 36.31178 25.73940 35151 ft 532 kts 109°
2026-05-07 19:39 36.28301 25.82384 35151 ft 532 kts 109°
2026-05-07 19:39 36.25418 25.90822 35148 ft 532 kts 109°
2026-05-07 19:40 36.22528 25.99258 35153 ft 532 kts 109°
2026-05-07 19:40 36.19626 26.07705 35149 ft 533 kts 109°
2026-05-07 19:41 36.16737 26.16088 35151 ft 533 kts 109°
2026-05-07 19:41 36.13822 26.24528 35150 ft 533 kts 109°
2026-05-07 19:42 36.10897 26.32967 35152 ft 534 kts 109°
2026-05-07 19:42 36.07960 26.41422 35147 ft 535 kts 109°
2026-05-07 19:43 36.05017 26.49871 35126 ft 535 kts 109°
2026-05-07 19:43 36.02069 26.58309 35149 ft 534 kts 109°
2026-05-07 19:44 35.99135 26.66684 35145 ft 534 kts 109°
2026-05-07 19:44 35.96178 26.75103 35148 ft 534 kts 109°
2026-05-07 19:45 35.93215 26.83516 35147 ft 534 kts 109°
2026-05-07 19:45 35.90247 26.91921 35145 ft 534 kts 108°
2026-05-07 19:46 35.87273 27.00318 35150 ft 534 kts 108°
2026-05-07 19:46 35.84306 27.08674 35147 ft 534 kts 108°
2026-05-07 19:47 35.81313 27.17079 35147 ft 534 kts 109°
2026-05-07 19:47 35.78330 27.25434 35138 ft 534 kts 108°
2026-05-07 19:48 35.75328 27.33820 35151 ft 535 kts 108°
2026-05-07 19:48 35.72315 27.42214 35152 ft 535 kts 108°
2026-05-07 19:49 35.69298 27.50597 35167 ft 536 kts 108°
2026-05-07 19:49 35.66287 27.58942 35159 ft 537 kts 108°
2026-05-07 19:50 35.63241 27.67361 35153 ft 538 kts 108°
2026-05-07 19:50 35.60191 27.75767 35151 ft 539 kts 108°
2026-05-07 19:51 35.57132 27.84175 35148 ft 539 kts 108°
2026-05-07 19:51 35.54068 27.92574 35151 ft 539 kts 108°
2026-05-07 19:52 35.50993 28.00980 35152 ft 539 kts 108°
2026-05-07 19:52 35.47935 28.09318 35161 ft 539 kts 108°
2026-05-07 19:53 35.44850 28.17711 35140 ft 539 kts 108°
2026-05-07 19:53 35.41763 28.26083 35151 ft 538 kts 108°
2026-05-07 19:54 35.38676 28.34435 35156 ft 538 kts 108°
2026-05-07 19:54 35.35603 28.42727 35150 ft 537 kts 108°
2026-05-07 19:55 35.32505 28.51065 35147 ft 537 kts 108°
2026-05-07 19:55 35.29405 28.59385 35152 ft 536 kts 108°
2026-05-07 19:56 35.26307 28.67681 35158 ft 535 kts 108°
2026-05-07 19:56 35.23221 28.75923 35148 ft 535 kts 108°
2026-05-07 19:57 35.20119 28.84186 35146 ft 534 kts 108°
2026-05-07 19:57 35.17009 28.92447 35152 ft 534 kts 108°
2026-05-07 19:58 35.13904 29.00678 35165 ft 533 kts 109°
2026-05-07 19:58 35.10794 29.08897 35144 ft 532 kts 109°
2026-05-07 19:59 35.07688 29.17084 35140 ft 530 kts 109°
2026-05-07 19:59 35.04586 29.25242 35160 ft 529 kts 110°
2026-05-07 20:00 35.01509 29.33318 35153 ft 527 kts 110°
2026-05-07 20:00 34.98420 29.41399 35143 ft 525 kts 110°
2026-05-07 20:01 34.95334 29.49453 35143 ft 522 kts 110°
2026-05-07 20:01 34.92257 29.57466 35153 ft 521 kts 111°
2026-05-07 20:02 34.89183 29.65452 35145 ft 519 kts 111°
2026-05-07 20:02 34.86134 29.73355 35150 ft 518 kts 111°
2026-05-07 20:03 34.83060 29.81301 35150 ft 518 kts 111°
2026-05-07 20:03 34.79982 29.89241 35155 ft 519 kts 111°
2026-05-07 20:04 34.76892 29.97195 35154 ft 520 kts 111°
2026-05-07 20:04 34.73482 30.04998 35159 ft 524 kts 118°
2026-05-07 20:05 34.69593 30.12527 35174 ft 526 kts 120°
2026-05-07 20:05 34.65670 30.19995 35153 ft 527 kts 120°
2026-05-07 20:06 34.61770 30.27542 35143 ft 527 kts 119°
2026-05-07 20:06 34.57907 30.35093 35149 ft 526 kts 118°
2026-05-07 20:07 34.54054 30.42631 35174 ft 525 kts 119°
2026-05-07 20:07 34.50193 30.50159 35154 ft 524 kts 119°
2026-05-07 20:08 34.46368 30.57593 35142 ft 522 kts 119°
2026-05-07 20:08 34.42525 30.65045 35145 ft 520 kts 119°
2026-05-07 20:09 34.38692 30.72462 35146 ft 518 kts 119°
2026-05-07 20:10 34.32950 30.83546 35154 ft 517 kts 119°
2026-05-07 20:10 34.29123 30.90915 35151 ft 516 kts 119°
2026-05-07 20:11 34.25325 30.98212 35178 ft 515 kts 120°
2026-05-07 20:11 34.21509 31.05529 35153 ft 514 kts 120°
2026-05-07 20:12 34.17701 31.12817 35137 ft 512 kts 120°
2026-05-07 20:12 34.13897 31.20079 35142 ft 510 kts 120°
2026-05-07 20:13 34.10107 31.27304 35169 ft 507 kts 120°
2026-05-07 20:13 34.06340 31.34468 35137 ft 504 kts 120°
2026-05-07 20:14 34.02596 31.41574 35132 ft 500 kts 120°
2026-05-07 20:14 33.98872 31.48630 35136 ft 497 kts 120°
2026-05-07 20:15 33.95160 31.55648 35158 ft 495 kts 121°
2026-05-07 20:15 33.91481 31.62592 35135 ft 494 kts 121°
2026-05-07 20:16 33.87788 31.69549 35141 ft 492 kts 121°
2026-05-07 20:16 33.84097 31.76488 35140 ft 492 kts 121°
2026-05-07 20:17 33.80405 31.83415 35142 ft 492 kts 121°
2026-05-07 20:17 33.76707 31.90341 35132 ft 493 kts 121°
2026-05-07 20:18 33.73020 31.97234 35133 ft 493 kts 121°
2026-05-07 20:18 33.69296 32.04181 35116 ft 494 kts 121°
2026-05-07 20:19 33.65572 32.11114 35141 ft 494 kts 121°
2026-05-07 20:19 33.61838 32.18055 35136 ft 495 kts 121°
2026-05-07 20:20 33.58724 32.23831 35137 ft 496 kts 121°
2026-05-07 20:20 33.54975 32.30776 35123 ft 496 kts 121°
2026-05-07 20:21 33.51223 32.37711 35127 ft 496 kts 121°
2026-05-07 20:21 33.47465 32.44644 35133 ft 495 kts 121°
2026-05-07 20:22 33.43709 32.51561 35122 ft 495 kts 121°
2026-05-07 20:22 33.39955 32.58460 35125 ft 494 kts 121°
2026-05-07 20:23 33.36207 32.65337 35131 ft 493 kts 121°
2026-05-07 20:23 33.32458 32.72202 35115 ft 492 kts 121°
2026-05-07 20:24 33.28735 32.79007 35126 ft 492 kts 121°
2026-05-07 20:24 33.24979 32.85861 34640 ft 498 kts 121°
2026-05-07 20:24 33.23080 32.89322 34039 ft 496 kts 121°
2026-05-07 20:25 33.21188 32.92765 33293 ft 496 kts 121°
2026-05-07 20:25 33.19293 32.96212 32586 ft 496 kts 121°
2026-05-07 20:25 33.17400 32.99650 31865 ft 496 kts 121°
2026-05-07 20:25 33.15506 33.03088 31136 ft 496 kts 121°
2026-05-07 20:26 33.13606 33.06533 30386 ft 497 kts 121°
2026-05-07 20:26 33.11703 33.09981 29515 ft 498 kts 121°
2026-05-07 20:26 33.09800 33.13427 28744 ft 496 kts 121°
2026-05-07 20:26 33.07914 33.16835 28194 ft 489 kts 121°
2026-05-07 20:27 33.06049 33.20202 27598 ft 484 kts 121°
2026-05-07 20:27 33.04202 33.23535 27030 ft 479 kts 122°
2026-05-07 20:27 33.02376 33.26829 26465 ft 474 kts 122°
2026-05-07 20:27 33.00565 33.30092 25909 ft 469 kts 122°
2026-05-07 20:28 32.98775 33.33316 25359 ft 465 kts 122°
2026-05-07 20:28 32.96999 33.36511 24815 ft 461 kts 122°
2026-05-07 20:28 32.95233 33.39687 24256 ft 458 kts 122°
2026-05-07 20:28 32.93478 33.42838 23687 ft 455 kts 122°
2026-05-07 20:29 32.91735 33.45967 23056 ft 452 kts 122°
2026-05-07 20:29 32.90023 33.49036 22482 ft 448 kts 122°
2026-05-07 20:29 32.88307 33.52110 21911 ft 443 kts 122°
2026-05-07 20:29 32.86605 33.55159 21375 ft 439 kts 123°
2026-05-07 20:30 32.84922 33.58170 20838 ft 435 kts 123°
2026-05-07 20:30 32.83250 33.61155 20313 ft 432 kts 123°
2026-05-07 20:30 32.81449 33.63989 19810 ft 428 kts 131°
2026-05-07 20:30 32.79406 33.66542 19336 ft 424 kts 134°
2026-05-07 20:31 32.77341 33.69028 18808 ft 421 kts 135°
2026-05-07 20:31 32.75281 33.71499 18244 ft 420 kts 135°
2026-05-07 20:31 32.73239 33.73968 17636 ft 417 kts 134°
2026-05-07 20:31 32.71219 33.76434 17045 ft 415 kts 134°
2026-05-07 20:32 32.69218 33.78890 16523 ft 411 kts 134°
2026-05-07 20:32 32.67243 33.81321 15989 ft 408 kts 134°
2026-05-07 20:32 32.65280 33.83739 15470 ft 405 kts 134°
2026-05-07 20:32 32.63353 33.86111 14964 ft 402 kts 134°
2026-05-07 20:33 32.61417 33.88493 14452 ft 399 kts 134°
2026-05-07 20:33 32.59491 33.90860 13930 ft 397 kts 134°
2026-05-07 20:33 32.57579 33.93205 13379 ft 394 kts 134°
2026-05-07 20:33 32.55721 33.95577 12981 ft 387 kts 130°
2026-05-07 20:34 32.54116 33.98078 12917 ft 375 kts 127°
2026-05-07 20:34 32.52599 34.00577 12837 ft 377 kts 126°
2026-05-07 20:34 32.51055 34.03152 12762 ft 386 kts 126°
2026-05-07 20:34 32.49493 34.05754 12665 ft 388 kts 126°
2026-05-07 20:35 32.47935 34.08334 12555 ft 382 kts 126°
2026-05-07 20:35 32.46392 34.10876 12577 ft 382 kts 126°
2026-05-07 20:35 32.44823 34.13445 12573 ft 387 kts 126°
2026-05-07 20:35 32.43242 34.16026 12568 ft 387 kts 126°
2026-05-07 20:36 32.41685 34.18587 12489 ft 377 kts 126°
2026-05-07 20:36 32.40201 34.21045 12414 ft 365 kts 126°
2026-05-07 20:36 32.38767 34.23429 12171 ft 348 kts 127°
2026-05-07 20:36 32.37368 34.25752 11674 ft 341 kts 127°
2026-05-07 20:37 32.36023 34.27982 11406 ft 327 kts 127°
2026-05-07 20:37 32.34704 34.30165 10980 ft 321 kts 127°
2026-05-07 20:37 32.33420 34.32289 10589 ft 314 kts 127°
2026-05-07 20:37 32.32161 34.34368 10209 ft 307 kts 127°
2026-05-07 20:38 32.30927 34.36405 9816 ft 302 kts 127°
2026-05-07 20:38 32.29712 34.38407 9408 ft 297 kts 127°
2026-05-07 20:38 32.28514 34.40381 8998 ft 293 kts 126°
2026-05-07 20:38 32.27336 34.42323 8602 ft 288 kts 126°
2026-05-07 20:39 32.26175 34.44235 8203 ft 284 kts 126°
2026-05-07 20:39 32.25028 34.46123 7800 ft 280 kts 126°
2026-05-07 20:39 32.23900 34.47980 7416 ft 277 kts 126°
2026-05-07 20:39 32.22786 34.49814 7036 ft 273 kts 126°
2026-05-07 20:40 32.21681 34.51625 6657 ft 270 kts 127°
2026-05-07 20:40 32.20449 34.53282 6265 ft 267 kts 134°
2026-05-07 20:40 32.19171 34.54819 5869 ft 265 kts 135°
2026-05-07 20:40 32.17871 34.56350 5471 ft 262 kts 135°
2026-05-07 20:41 32.16608 34.57894 5063 ft 261 kts 129°
2026-05-07 20:41 32.15535 34.59618 4685 ft 262 kts 122°
2026-05-07 20:41 32.14557 34.61448 4301 ft 265 kts 118°
2026-05-07 20:41 32.13589 34.63319 3936 ft 268 kts 119°
2026-05-07 20:42 32.12613 34.65201 3566 ft 268 kts 117°
2026-05-07 20:42 32.11644 34.67060 3190 ft 264 kts 118°
2026-05-07 20:42 32.10691 34.68886 2818 ft 259 kts 117°
2026-05-07 20:42 32.09765 34.70660 2571 ft 249 kts 118°
2026-05-07 20:43 32.08886 34.72342 2497 ft 232 kts 117°
2026-05-07 20:43 32.08061 34.73926 2498 ft 225 kts 118°
2026-05-07 20:43 32.07250 34.75487 2306 ft 223 kts 117°
2026-05-07 20:43 32.06448 34.77025 2033 ft 218 kts 118°
2026-05-07 20:44 32.05667 34.78525 1739 ft 210 kts 118°
2026-05-07 20:44 32.04923 34.79953 1458 ft 198 kts 118°
2026-05-07 20:44 32.04235 34.81274 1204 ft 181 kts 118°
2026-05-07 20:44 32.03612 34.82471 984 ft 166 kts 118°
2026-05-07 20:45 32.03021 34.83606 730 ft 159 kts 119°
2026-05-07 20:45 32.02433 34.84725 516 ft 161 kts 119°
2026-05-07 20:45 32.01857 34.85832 324 ft 160 kts 120°
2026-05-07 20:45 32.01279 34.86948 124 ft 155 kts 118°
2026-05-07 20:46 32.00782 34.87908 117 ft 110 kts 122°
2026-05-07 20:46 32.00478 34.88492 122 ft 66 kts 129°
2026-05-07 20:46 32.00273 34.88663 122 ft 3 kts 152°
2026-05-07 20:47 32.00272 34.88663 122 ft 1 kts 152°
2026-05-07 20:47 32.00243 34.88678 123 ft 10 kts 158°
2026-05-07 20:48 32.00147 34.88703 122 ft 11 kts 186°
2026-05-07 20:48 32.00101 34.88627 122 ft 16 kts 286°
2026-05-07 20:48 32.00164 34.88505 121 ft 19 kts 302°
2026-05-07 20:48 32.00239 34.88359 121 ft 21 kts 301°
2026-05-07 20:49 32.00315 34.88217 119 ft 22 kts 303°
2026-05-07 20:49 32.00395 34.88060 118 ft 22 kts 301°
2026-05-07 20:49 32.00466 34.87924 119 ft 20 kts 302°
2026-05-07 20:49 32.00475 34.87839 117 ft 8 kts 220°
2026-05-07 20:50 32.00419 34.87795 119 ft 11 kts 212°
2026-05-07 20:50 32.00343 34.87742 117 ft 14 kts 210°
2026-05-07 20:50 32.00249 34.87674 114 ft 17 kts 213°
2026-05-07 20:50 32.00195 34.87610 115 ft 10 kts 253°
2026-05-07 20:51 32.00175 34.87535 115 ft 6 kts 263°
2026-05-07 20:51 32.00174 34.87524 114 ft 2 kts 270°
2026-05-07 20:51 32.00171 34.87498 116 ft 3 kts 260°
2026-05-07 20:51 32.00171 34.87495 116 ft 0 kts 260°